Tracking 18033 objects as of 23-March-2017
HD Live streaming from Space Station
objects crossing your sky now

NAVSTAR 28 (USA 85)

Track NAVSTAR 28 (USA 85) now!
NAVSTAR 28 (USA 85) is classified as:


NORAD ID: 22231
Int'l Code: 1992-079A
Perigee: 19,964.7 km
Apogee: 20,415.1 km
Inclination: 55.3 °
Period: 718.0 minutes
Semi major axis: 26560 km
RCS: 3.981 m2 (large)
Launch date: November 22, 1992
Source: United States (US)
Launch site: AIR FORCE EASTERN TEST RANGE (AFETR)
PRN:
Your satellite tracking list
Your tracking list is empty





NASA's NSSDC Master Catalog

Two Line Element Set (TLE):
1 22231U 92079A   17080.83751681 +.00000022 +00000-0 +00000-0 0  9996
2 22231 055.3168 230.4232 0084785 309.2871 082.6520 02.00557692030640
Source of the keplerian elements: AFSPC